ELECTRON KICK STAGE R/B, 53817

Orbit data source: Space-Track

ELECTRON KICK STAGE R/B, 53817 is space debris in SSO originally from a launch on Thu, 15 Sep 2022 UTC launched from the Rocket Lab Launch Complex (RLLC). Debris objects in space refer to the collection of defunct objects orbiting the Earth. Examples of debris include non-operational satellites, rocket bodies, and fragments generated from explosions, collisions, or faulty payload assembly.

Loading next visibility...
Identifier
53817, 2022-113C
Orbit
SSO
Country
Flag of USUS
Related business
Manufacturer
Rocket Lab
Mission
Spacecraft
Bus & Motor
KICK STAGE, CURIE
Mass
~40 kg wet, ~40 kg dry
Launch date (UTC)
2022-09-15 (4 years ago)
Launch vehicle
Unknown
Launch site
Rocket Lab Launch Complex (RLLC)
Object type
Payload
Rocket body
Debris
Shape & HBR
Trunc Cone, 0.7 m
Radar Cross Section
0.760 m², Medium (>0.1 m² and < 1m²)

Expand to show TLE details & history
Last TLE update: 2 days ago

TLE from 2 days ago
0 ELECTRON KICK STAGE R/B
1 53817U 22113C   26171.19730761  .00157814  00000-0  98390-3 0  9992
2 53817  97.4769 252.3017 0005767 205.2228 154.8757 15.76435620208763
Epoch: 2026-06-20T04:44Z
TLE epoch observation values (Epoch: 2026-06-20T04:44:07.377Z)
Latitude
0.00002°
Longitude
-87.14443°
Altitude
347.223 km
Speed
7.699 km/s
True Right ascension
16h 49m 12s
True Declination
0° 00' 00"
Sunlit
Object was in full shadow at epoch
Visualization orbit readout
Latitude
Unknown
Longitude
Unknown
Altitude
Unknown
Speed
Unknown
Apparent Right ascension
Unknown
Apparent Declination
Unknown
Sunlit
N/A
Visualization observer readout
Local Sidereal Time
21:31:10
Azimuth
Unknown
Elevation
Unknown
Doppler factor
Unknown
Orbital elements
Apogee altitude
341.316 km
Perigee altitude
333.57 km
Semi-major axis
6,715.58 km
Eccentricity
0.00058
Inclination
97.4769°
RAAN
252.3017°
Arg. of periapsis
205.2228°
True anomaly
154.90374°
Mean anomaly
154.8757°
Eccentric anomaly
154.88972°
Mean motion
3.94383 °/min
Orbital period
91.28 mins
BSTAR
0.0009839
Loading maneuver chart data...
Computing Atmospheric mass density...
Loading historical data...
Loading historical data...
Loading historical data...
Loading historical data...
Loading historical data...
Loading historical data...
Loading historical data...
Other satellites on launch #113 in the year 2022 (2022-09-15 UTC)

Documentation

Showing up to 5 results
|